Location: Archemont
(49.1579°N, 1.7598°E)
Time: 11:40:27
(UTC+00:00)

S-56A Canister/Altair - Pass Details

Date: 20 April 2024
Orbit: 638 x 2488 km, 38.9° (Epoch: 22 May)

Event Time Altitude Azimuth Distance (km) Brightness Sun altitude
Rises 20:57:39 0° 267° (W) 3,918 11.8 -17.9°
Reaches altitude 10° 21:00:19 10° 257° (WSW) 3,186 11.1 -18.2°
Maximum altitude 21:07:21 33° 197° (SSW) 2,427 9.8 -19.0°
Enters shadow 21:11:57 24° 159° (SSE) 3,152 10.1 -19.5°
Drops below altitude 10° 21:17:08 10° 141° (SE) 4,468 - -20.1°
Sets 21:21:41 0° 133° (SE) 5,724 - -20.6°
